Kuchera_Ratio
0.0 0.0 0.0 0.0 0.0 0.0 0.0 0.0 0.0 0.0 0.0 0.0 0.0 0.0 0.0 0.0 0.0 0.0 0.0 0.0 0.0 0.0 0.0 0.0 0.0 0.0 0.0
0.0 0.0 0.0 0.0 0.0 0.0 0.0 0.0 0.0 0.0 0.0 0.0 0.0 0.0 0.0 0.0 0.0 0.0 0.0 0.0 0.0 0.0 0.0 0.0 0.0 0.0 0.0
0.0 0.0 0.0 0.0 0.0 0.0 0.0 0.0 0.0 0.0 0.0 0.0 0.0 0.0 0.0 0.0 0.0 0.0 0.0 0.0 0.0 0.0 0.0 0.0 0.0 0.0 0.0
0.0 0.0 0.0 0.0 0.0 0.0 0.1 0.0 0.0 0.0 0.0 0.0 0.0 0.0 0.0 0.0 0.0 0.0 0.0 0.0 0.0 0.0 0.0 0.0 0.0 0.0 0.0
0.0 0.0 0.0 0.6 1.2 0.1 1.6 2.4 1.6 0.3 0.7 0.0 0.0 0.0 0.0 0.0 0.0 0.0 0.0 0.0 0.0 0.0 0.0 0.0 0.0 0.0 0.0
0.0 0.0 0.0 0.0 0.0 2.0 2.8 3.2 3.2 1.2 3.0 1.6 0.0 1.7 1.4 0.0 0.0 0.0 0.0 0.0 0.0 0.0 0.0 0.0 0.0 0.0 0.0
0.0 0.0 0.4 0.0 0.5 2.5 3.0 3.6 3.6 2.3 2.8 2.7 0.8 2.6 2.3 0.3 0.0 0.0 0.0 0.0 0.0 0.0 0.0 0.0 0.0 0.0 0.0
2.1 1.9 0.0 0.0 0.0 0.8 2.0 3.7 4.3 3.6 1.3 4.3 4.2 4.4 4.8 2.2 0.0 0.0 0.0 0.0 0.0 0.0 0.0 0.0 0.0 0.0 0.0
0.0 0.0 0.0 0.0 0.0 2.7 4.4 5.2 6.6 5.5 4.1 3.1 6.0 6.3 6.5 6.3 1.9 0.0 0.0 0.0 0.0 0.0 0.0 0.0 0.0 0.0 0.0
3.1 0.5 0.0 0.0 0.0 0.0 3.6 5.8 4.5 5.6 3.9 4.4 7.0 6.5 7.9 5.8 5.9 2.6 0.9 0.0 0.0 0.0 0.0 0.0 0.0 0.0 0.0
3.9 4.0 4.9 4.8 5.4 3.7 3.7 3.7 3.5 3.1 4.2 5.0 8.1 8.2 8.5 6.9 6.0 5.8 4.2 2.8 1.9 0.4 0.0 0.0 0.0 0.0 1.8
4.7 5.0 5.3 6.2 6.8 6.8 6.7 6.3 6.0 4.6 4.8 5.9 7.0 8.1 8.4 7.1 7.1 5.9 6.2 4.8 3.0 4.6 2.3 0.0 0.0 0.0 0.0
5.3 4.9 5.6 6.8 7.9 9.0 8.9 8.9 8.7 8.2 7.8 7.8 6.7 7.9 8.7 7.9 7.5 6.5 6.4 7.2 6.0 7.2 5.9 5.3 4.6 3.6 6.8
5.2 5.4 6.8 8.8 10.1 10.8 10.9 10.8 10.9 10.5 9.9 9.7 9.0 8.8 8.9 8.5 7.9 7.2 6.7 6.8 6.5 6.7 7.0 6.5 6.4 5.4 4.9
5.7 6.9 8.2 10.0 11.3 11.5 11.4 11.7 11.4 10.6 10.2 10.5 9.7 9.1 9.7 8.9 8.3 7.9 6.9 6.9 6.9 7.8 7.2 6.5 6.4 6.8 6.8
6.7 6.9 8.4 9.9 10.8 11.5 11.8 12.0 12.1 10.5 10.3 10.7 10.9 11.0 10.4 8.0 5.9 6.5 7.2 6.8 7.6 7.9 7.5 6.8 6.2 6.8 7.0
6.7 7.7 8.4 9.1 10.1 11.7 12.1 12.3 12.1 11.4 10.0 10.6 11.8 12.1 11.7 9.3 8.4 3.6 8.1 8.3 8.5 8.4 8.0 7.5 6.5 6.1 7.5